QPF
0.00 0.00 0.00 0.00 0.00 0.00 0.00 0.00 0.00 0.00 0.00 0.00 0.00 0.00 0.00 0.00 0.00 0.00 0.00 0.00 0.00 0.00 0.00 0.00 0.00 0.00 0.00 0.00 0.00 0.00 0.00 0.00 0.00 0.00 0.00 0.00 0.00 0.00 0.00 0.00 0.00 0.00 0.00 0.00 0.00 0.00 0.00 0.00 0.00
0.00 0.00 0.00 0.00 0.00 0.00 0.00 0.00 0.00 0.00 0.00 0.00 0.00 0.00 0.00 0.00 0.00 0.00 0.00 0.00 0.00 0.00 0.00 0.00 0.00 0.00 0.00 0.00 0.00 0.00 0.00 0.00 0.00 0.01 0.01 0.01 0.00 0.00 0.00 0.00 0.00 0.00 0.00 0.00 0.00 0.00 0.00 0.00 0.00
0.00 0.00 0.00 0.00 0.00 0.00 0.00 0.00 0.00 0.00 0.00 0.00 0.00 0.00 0.00 0.00 0.00 0.00 0.00 0.00 0.00 0.00 0.00 0.00 0.00 0.00 0.00 0.00 0.00 0.00 0.00 0.00 0.01 0.01 0.01 0.01 0.00 0.00 0.00 0.00 0.00 0.00 0.00 0.00 0.00 0.00 0.00 0.00 0.00
0.00 0.00 0.00 0.00 0.00 0.00 0.00 0.00 0.00 0.00 0.00 0.00 0.00 0.00 0.00 0.00 0.00 0.00 0.00 0.00 0.00 0.00 0.00 0.00 0.00 0.00 0.00 0.00 0.00 0.00 0.00 0.00 0.01 0.01 0.01 0.00 0.00 0.00 0.00 0.00 0.00 0.00 0.00 0.00 0.00 0.00 0.00 0.00 0.00
0.00 0.00 0.00 0.00 0.00 0.00 0.00 0.00 0.00 0.00 0.00 0.00 0.00 0.00 0.00 0.00 0.00 0.00 0.00 0.00 0.00 0.00 0.00 0.00 0.00 0.00 0.00 0.00 0.00 0.00 0.00 0.00 0.01 0.01 0.00 0.00 0.00 0.00 0.00 0.00 0.00 0.00 0.00 0.00 0.00 0.00 0.00 0.00 0.00
0.00 0.00 0.00 0.00 0.00 0.00 0.00 0.00 0.00 0.00 0.00 0.00 0.00 0.00 0.00 0.00 0.00 0.00 0.00 0.00 0.00 0.00 0.00 0.00 0.00 0.00 0.00 0.00 0.00 0.00 0.00 0.01 0.01 0.01 0.00 0.00 0.00 0.00 0.00 0.00 0.00 0.00 0.00 0.00 0.00 0.00 0.00 0.00 0.00
0.00 0.00 0.00 0.00 0.00 0.00 0.00 0.00 0.00 0.00 0.00 0.00 0.00 0.00 0.00 0.00 0.00 0.00 0.00 0.00 0.00 0.00 0.00 0.00 0.00 0.00 0.00 0.00 0.00 0.00 0.00 0.00 0.01 0.00 0.00 0.00 0.00 0.00 0.00 0.00 0.00 0.00 0.00 0.00 0.00 0.00 0.00 0.00 0.00
0.00 0.00 0.00 0.00 0.00 0.00 0.00 0.00 0.00 0.00 0.00 0.00 0.00 0.00 0.00 0.00 0.00 0.00 0.00 0.00 0.00 0.00 0.00 0.00 0.00 0.00 0.00 0.00 0.00 0.00 0.00 0.00 0.00 0.00 0.00 0.00 0.00 0.00 0.00 0.00 0.00 0.00 0.00 0.00 0.00 0.00 0.00 0.00 0.00
0.00 0.00 0.00 0.00 0.00 0.00 0.00 0.00 0.00 0.00 0.00 0.00 0.00 0.00 0.00 0.00 0.00 0.00 0.00 0.00 0.00 0.00 0.00 0.00 0.00 0.00 0.00 0.00 0.00 0.00 0.00 0.00 0.00 0.00 0.00 0.00 0.00 0.00 0.00 0.00 0.00 0.00 0.00 0.00 0.00 0.00 0.00 0.00 0.00
0.00 0.00 0.00 0.00 0.00 0.00 0.00 0.00 0.00 0.00 0.00 0.00 0.00 0.00 0.00 0.00 0.00 0.00 0.00 0.00 0.00 0.00 0.00 0.00 0.00 0.00 0.00 0.00 0.00 0.00 0.00 0.01 0.01 0.00 0.00 0.00 0.00 0.00 0.00 0.00 0.00 0.00 0.00 0.00 0.00 0.00 0.00 0.00 0.00
0.00 0.00 0.00 0.00 0.00 0.00 0.00 0.00 0.00 0.00 0.00 0.00 0.00 0.00 0.00 0.00 0.00 0.00 0.00 0.00 0.00 0.00 0.00 0.00 0.00 0.00 0.00 0.00 0.00 0.00 0.00 0.00 0.00 0.00 0.00 0.00 0.00 0.00 0.00 0.00 0.00 0.00 0.00 0.00 0.00 0.00 0.00 0.00 0.00
0.00 0.00 0.00 0.00 0.00 0.00 0.00 0.00 0.00 0.00 0.00 0.00 0.00 0.00 0.00 0.00 0.00 0.00 0.00 0.00 0.00 0.00 0.00 0.00 0.00 0.00 0.00 0.00 0.00 0.00 0.00 0.00 0.00 0.00 0.00 0.00 0.00 0.00 0.00 0.00 0.00 0.00 0.00 0.00 0.00 0.00 0.00 0.00 0.00
0.00 0.00 0.00 0.00 0.00 0.00 0.00 0.00 0.00 0.00 0.00 0.00 0.00 0.00 0.00 0.00 0.00 0.00 0.00 0.00 0.00 0.00 0.00 0.00 0.00 0.00 0.00 0.00 0.00 0.00 0.00 0.00 0.00 0.00 0.00 0.00 0.00 0.00 0.00 0.00 0.00 0.00 0.00 0.00 0.00 0.00 0.00 0.00 0.00
0.00 0.00 0.00 0.00 0.00 0.00 0.00 0.00 0.00 0.00 0.00 0.00 0.00 0.00 0.00 0.00 0.00 0.00 0.00 0.00 0.00 0.00 0.00 0.00 0.00 0.00 0.00 0.00 0.00 0.00 0.00 0.00 0.00 0.00 0.00 0.00 0.00 0.00 0.00 0.00 0.00 0.00 0.00 0.00 0.00 0.00 0.00 0.00 0.00
0.00 0.00 0.00 0.00 0.00 0.00 0.00 0.00 0.00 0.00 0.00 0.00 0.00 0.00 0.00 0.00 0.00 0.00 0.00 0.00 0.00 0.00 0.00 0.00 0.00 0.00 0.00 0.00 0.00 0.00 0.00 0.00 0.00 0.00 0.00 0.00 0.00 0.00 0.00 0.00 0.00 0.00 0.00 0.00 0.00 0.00 0.00 0.00 0.00
0.00 0.00 0.00 0.00 0.00 0.00 0.00 0.00 0.00 0.00 0.00 0.00 0.00 0.00 0.00 0.00 0.00 0.00 0.00 0.00 0.00 0.00 0.00 0.00 0.00 0.00 0.00 0.00 0.00 0.00 0.00 0.00 0.00 0.00 0.00 0.00 0.00 0.00 0.00 0.00 0.00 0.00 0.00 0.00 0.00 0.00 0.00 0.00 0.00
0.00 0.00 0.00 0.00 0.00 0.00 0.00 0.00 0.00 0.00 0.00 0.00 0.00 0.00 0.00 0.00 0.00 0.00 0.00 0.00 0.00 0.00 0.00 0.00 0.00 0.00 0.00 0.00 0.00 0.00 0.00 0.00 0.00 0.00 0.00 0.00 0.00 0.00 0.00 0.00 0.00 0.00 0.00 0.00 0.00 0.00 0.00 0.00 0.00
0.00 0.00 0.00 0.00 0.00 0.00 0.00 0.00 0.00 0.00 0.00 0.00 0.00 0.00 0.00 0.00 0.00 0.00 0.00 0.00 0.00 0.00 0.00 0.00 0.00 0.00 0.00 0.00 0.00 0.00 0.00 0.00 0.00 0.00 0.00 0.00 0.00 0.00 0.00 0.00 0.00 0.00 0.00 0.00 0.00 0.00 0.00 0.00 0.00
0.00 0.00 0.00 0.00 0.00 0.00 0.00 0.00 0.00 0.00 0.00 0.00 0.00 0.00 0.00 0.00 0.00 0.00 0.00 0.00 0.00 0.00 0.00 0.00 0.00 0.00 0.00 0.00 0.00 0.00 0.00 0.00 0.00 0.00 0.00 0.00 0.00 0.00 0.00 0.00 0.00 0.00 0.00 0.00 0.00 0.00 0.00 0.00 0.00
0.00 0.00 0.00 0.00 0.00 0.00 0.00 0.00 0.00 0.00 0.00 0.00 0.00 0.00 0.00 0.00 0.00 0.00 0.00 0.00 0.00 0.00 0.00 0.00 0.00 0.00 0.00 0.00 0.00 0.00 0.00 0.00 0.00 0.00 0.00 0.00 0.00 0.00 0.00 0.00 0.00 0.00 0.00 0.00 0.00 0.00 0.00 0.00 0.00
0.00 0.00 0.00 0.00 0.00 0.00 0.00 0.00 0.00 0.00 0.00 0.00 0.00 0.00 0.00 0.00 0.00 0.00 0.00 0.00 0.00 0.00 0.00 0.00 0.00 0.00 0.00 0.00 0.00 0.00 0.00 0.00 0.00 0.00 0.00 0.00 0.00 0.00 0.00 0.00 0.00 0.00 0.00 0.00 0.00 0.00 0.00 0.00 0.00
0.00 0.00 0.00 0.00 0.00 0.00 0.00 0.00 0.00 0.00 0.00 0.00 0.00 0.00 0.00 0.00 0.00 0.00 0.00 0.00 0.00 0.00 0.00 0.00 0.00 0.00 0.00 0.00 0.00 0.00 0.00 0.00 0.00 0.00 0.00 0.00 0.00 0.00 0.00 0.00 0.00 0.00 0.00 0.00 0.00 0.00 0.00 0.00 0.00
0.00 0.00 0.00 0.00 0.00 0.00 0.00 0.00 0.00 0.00 0.00 0.00 0.00 0.00 0.00 0.00 0.00 0.00 0.00 0.00 0.00 0.00 0.00 0.00 0.00 0.00 0.00 0.00 0.00 0.00 0.00 0.00 0.00 0.00 0.00 0.00 0.00 0.00 0.00 0.00 0.00 0.00 0.00 0.00 0.00 0.00 0.00 0.00 0.00
0.00 0.00 0.00 0.00 0.00 0.00 0.00 0.00 0.00 0.00 0.00 0.00 0.00 0.00 0.00 0.00 0.00 0.00 0.00 0.00 0.00 0.00 0.00 0.00 0.00 0.00 0.00 0.00 0.00 0.00 0.00 0.00 0.00 0.00 0.00 0.00 0.00 0.00 0.00 0.00 0.00 0.00 0.00 0.00 0.00 0.00 0.00 0.00 0.00
0.00 0.00 0.00 0.00 0.00 0.00 0.00 0.00 0.00 0.00 0.00 0.00 0.00 0.00 0.00 0.00 0.00 0.00 0.00 0.00 0.00 0.00 0.00 0.00 0.00 0.00 0.00 0.00 0.00 0.00 0.00 0.00 0.00 0.00 0.00 0.00 0.00 0.00 0.00 0.00 0.00 0.00 0.00 0.00 0.00 0.00 0.00 0.00 0.00
0.00 0.00 0.00 0.01 0.00 0.00 0.00 0.00 0.00 0.00 0.00 0.00 0.00 0.00 0.00 0.00 0.00 0.00 0.00 0.00 0.00 0.00 0.00 0.00 0.00 0.00 0.00 0.00 0.00 0.00 0.00 0.00 0.00 0.00 0.00 0.00 0.00 0.00 0.00 0.00 0.00 0.00 0.00 0.00 0.00 0.00 0.00 0.00 0.00
0.00 0.00 0.00 0.01 0.01 0.00 0.00 0.00 0.00 0.00 0.00 0.00 0.00 0.00 0.00 0.00 0.00 0.00 0.00 0.00 0.00 0.00 0.00 0.00 0.00 0.00 0.00 0.00 0.00 0.00 0.00 0.00 0.00 0.00 0.00 0.00 0.00 0.00 0.00 0.00 0.00 0.00 0.00 0.00 0.00 0.00 0.00 0.00 0.00
0.00 0.00 0.00 0.02 0.05 0.02 0.00 0.00 0.00 0.00 0.00 0.00 0.00 0.00 0.00 0.00 0.00 0.00 0.00 0.00 0.00 0.00 0.00 0.00 0.00 0.00 0.00 0.00 0.00 0.00 0.00 0.00 0.00 0.00 0.00 0.00 0.00 0.00 0.00 0.00 0.00 0.00 0.00 0.00 0.00 0.00 0.00 0.00 0.00
0.00 0.00 0.00 0.02 0.04 0.04 0.02 0.00 0.00 0.00 0.00 0.00 0.00 0.00 0.00 0.00 0.00 0.00 0.00 0.00 0.00 0.00 0.00 0.00 0.00 0.00 0.00 0.00 0.00 0.00 0.00 0.00 0.00 0.00 0.00 0.00 0.00 0.00 0.00 0.00 0.00 0.00 0.00 0.00 0.00 0.00 0.00 0.00 0.00
0.00 0.00 0.01 0.03 0.04 0.05 0.06 0.03 0.00 0.00 0.00 0.00 0.00 0.00 0.00 0.00 0.00 0.00 0.00 0.00 0.00 0.00 0.00 0.00 0.00 0.00 0.00 0.00 0.00 0.00 0.00 0.00 0.00 0.00 0.00 0.00 0.00 0.00 0.00 0.00 0.00 0.00 0.00 0.00 0.00 0.00 0.00 0.00 0.00
MSLP
1013.52 1013.97 1014.54 1015.12 1015.65 1016.04 1016.27 1016.32 1016.21 1016.01 1015.78 1015.55 1015.37 1015.22 1015.09 1014.94 1014.75 1014.52 1014.25 1013.99 1013.80 1013.73 1013.83 1014.10 1014.53 1015.05 1015.60 1016.10 1016.52 1016.82 1017.02 1017.17 1017.29 1017.44 1017.65 1017.91 1018.22 1018.52 1018.80 1019.01 1019.16 1019.25 1019.33 1019.41 1019.51 1019.65 1019.81 1019.96 1020.06
1013.83 1014.36 1014.95 1015.51 1015.97 1016.24 1016.32 1016.21 1015.95 1015.62 1015.28 1014.98 1014.75 1014.60 1014.48 1014.36 1014.21 1014.02 1013.80 1013.59 1013.44 1013.43 1013.57 1013.88 1014.34 1014.88 1015.45 1015.97 1016.40 1016.72 1016.95 1017.13 1017.29 1017.49 1017.75 1018.06 1018.40 1018.73 1019.01 1019.23 1019.37 1019.46 1019.52 1019.59 1019.69 1019.82 1019.97 1020.12 1020.22
1014.26 1014.81 1015.38 1015.87 1016.21 1016.35 1016.27 1016.00 1015.61 1015.16 1014.74 1014.40 1014.15 1014.00 1013.91 1013.83 1013.73 1013.59 1013.43 1013.27 1013.18 1013.21 1013.39 1013.73 1014.21 1014.76 1015.33 1015.85 1016.29 1016.62 1016.87 1017.08 1017.28 1017.51 1017.80 1018.14 1018.49 1018.83 1019.12 1019.33 1019.48 1019.57 1019.64 1019.71 1019.82 1019.96 1020.12 1020.26 1020.37
1014.76 1015.30 1015.81 1016.19 1016.39 1016.38 1016.16 1015.77 1015.27 1014.75 1014.28 1013.92 1013.68 1013.54 1013.48 1013.44 1013.39 1013.30 1013.18 1013.08 1013.04 1013.11 1013.32 1013.68 1014.15 1014.70 1015.25 1015.76 1016.18 1016.52 1016.78 1016.99 1017.21 1017.47 1017.78 1018.12 1018.48 1018.82 1019.11 1019.33 1019.49 1019.60 1019.69 1019.80 1019.93 1020.10 1020.27 1020.43 1020.54
1015.28 1015.77 1016.18 1016.44 1016.51 1016.37 1016.03 1015.55 1015.00 1014.46 1013.98 1013.63 1013.40 1013.29 1013.25 1013.23 1013.21 1013.15 1013.08 1013.02 1013.02 1013.12 1013.34 1013.70 1014.16 1014.68 1015.20 1015.67 1016.07 1016.39 1016.65 1016.87 1017.09 1017.36 1017.66 1018.01 1018.37 1018.71 1019.00 1019.24 1019.42 1019.57 1019.72 1019.87 1020.05 1020.25 1020.46 1020.64 1020.76
1015.74 1016.15 1016.45 1016.60 1016.55 1016.32 1015.92 1015.41 1014.85 1014.32 1013.88 1013.55 1013.34 1013.23 1013.20 1013.18 1013.16 1013.12 1013.07 1013.04 1013.06 1013.17 1013.40 1013.74 1014.17 1014.65 1015.13 1015.56 1015.93 1016.22 1016.46 1016.68 1016.91 1017.18 1017.49 1017.83 1018.18 1018.53 1018.84 1019.10 1019.33 1019.54 1019.74 1019.96 1020.19 1020.44 1020.67 1020.86 1021.00
1016.09 1016.41 1016.60 1016.64 1016.51 1016.23 1015.81 1015.32 1014.81 1014.33 1013.93 1013.63 1013.43 1013.32 1013.26 1013.23 1013.19 1013.13 1013.08 1013.06 1013.09 1013.21 1013.44 1013.75 1014.15 1014.58 1015.01 1015.39 1015.73 1016.00 1016.23 1016.45 1016.69 1016.96 1017.27 1017.62 1017.98 1018.33 1018.66 1018.97 1019.24 1019.51 1019.77 1020.05 1020.33 1020.62 1020.88 1021.09 1021.24
1016.29 1016.51 1016.61 1016.57 1016.40 1016.10 1015.72 1015.28 1014.83 1014.42 1014.06 1013.79 1013.59 1013.44 1013.34 1013.26 1013.17 1013.10 1013.03 1013.01 1013.05 1013.17 1013.38 1013.67 1014.03 1014.42 1014.80 1015.14 1015.45 1015.71 1015.95 1016.18 1016.44 1016.73 1017.06 1017.41 1017.79 1018.16 1018.52 1018.85 1019.17 1019.49 1019.81 1020.14 1020.46 1020.78 1021.06 1021.28 1021.43
1016.35 1016.49 1016.51 1016.41 1016.22 1015.94 1015.61 1015.24 1014.87 1014.51 1014.20 1013.92 1013.69 1013.49 1013.33 1013.18 1013.05 1012.93 1012.85 1012.83 1012.87 1012.99 1013.19 1013.46 1013.79 1014.13 1014.48 1014.80 1015.10 1015.37 1015.63 1015.89 1016.18 1016.51 1016.86 1017.25 1017.64 1018.03 1018.41 1018.77 1019.13 1019.48 1019.84 1020.20 1020.55 1020.88 1021.17 1021.40 1021.55
1016.31 1016.37 1016.33 1016.21 1016.02 1015.77 1015.50 1015.19 1014.88 1014.56 1014.25 1013.94 1013.66 1013.39 1013.15 1012.93 1012.75 1012.61 1012.52 1012.50 1012.54 1012.67 1012.87 1013.12 1013.42 1013.74 1014.06 1014.37 1014.67 1014.97 1015.27 1015.58 1015.93 1016.30 1016.69 1017.10 1017.52 1017.93 1018.33 1018.71 1019.08 1019.45 1019.83 1020.21 1020.57 1020.91 1021.20 1021.43 1021.59
1016.24 1016.24 1016.16 1016.02 1015.84 1015.63 1015.39 1015.13 1014.83 1014.52 1014.17 1013.82 1013.46 1013.11 1012.79 1012.52 1012.30 1012.14 1012.06 1012.05 1012.11 1012.24 1012.43 1012.67 1012.95 1013.24 1013.55 1013.87 1014.19 1014.52 1014.88 1015.25 1015.65 1016.08 1016.52 1016.96 1017.40 1017.83 1018.23 1018.62 1019.01 1019.39 1019.77 1020.15 1020.52 1020.86 1021.16 1021.40 1021.57
1016.20 1016.15 1016.04 1015.89 1015.72 1015.53 1015.31 1015.05 1014.74 1014.38 1013.98 1013.54 1013.10 1012.68 1012.30 1011.99 1011.76 1011.61 1011.54 1011.56 1011.64 1011.77 1011.96 1012.18 1012.43 1012.70 1013.00 1013.32 1013.67 1014.05 1014.45 1014.89 1015.35 1015.83 1016.31 1016.79 1017.25 1017.68 1018.09 1018.49 1018.88 1019.26 1019.65 1020.03 1020.40 1020.75 1021.06 1021.32 1021.52
1016.22 1016.14 1016.02 1015.87 1015.70 1015.50 1015.27 1014.97 1014.61 1014.18 1013.70 1013.18 1012.66 1012.18 1011.77 1011.45 1011.24 1011.12 1011.09 1011.13 1011.23 1011.36 1011.53 1011.72 1011.93 1012.18 1012.46 1012.78 1013.15 1013.57 1014.02 1014.51 1015.01 1015.53 1016.05 1016.54 1017.01 1017.46 1017.88 1018.29 1018.68 1019.08 1019.47 1019.86 1020.25 1020.61 1020.95 1021.23 1021.47
1016.33 1016.24 1016.11 1015.95 1015.77 1015.56 1015.28 1014.92 1014.48 1013.96 1013.38 1012.79 1012.22 1011.73 1011.33 1011.04 1010.87 1010.81 1010.83 1010.90 1011.00 1011.12 1011.24 1011.38 1011.54 1011.74 1012.00 1012.31 1012.68 1013.11 1013.59 1014.11 1014.64 1015.18 1015.71 1016.21 1016.69 1017.15 1017.59 1018.01 1018.43 1018.84 1019.26 1019.67 1020.08 1020.47 1020.84 1021.17 1021.45
1016.48 1016.39 1016.27 1016.11 1015.92 1015.66 1015.32 1014.89 1014.35 1013.74 1013.09 1012.45 1011.88 1011.41 1011.07 1010.86 1010.78 1010.79 1010.87 1010.96 1011.05 1011.12 1011.18 1011.25 1011.33 1011.47 1011.67 1011.95 1012.31 1012.74 1013.22 1013.74 1014.28 1014.81 1015.33 1015.83 1016.32 1016.78 1017.24 1017.69 1018.14 1018.59 1019.04 1019.49 1019.93 1020.35 1020.75 1021.12 1021.45
1016.63 1016.55 1016.44 1016.29 1016.08 1015.78 1015.37 1014.85 1014.23 1013.55 1012.86 1012.22 1011.69 1011.30 1011.07 1010.99 1011.03 1011.14 1011.26 1011.37 1011.43 1011.44 1011.41 1011.37 1011.36 1011.41 1011.55 1011.78 1012.10 1012.51 1012.97 1013.46 1013.97 1014.47 1014.96 1015.45 1015.92 1016.40 1016.88 1017.37 1017.86 1018.35 1018.85 1019.33 1019.80 1020.25 1020.68 1021.08 1021.45
1016.71 1016.66 1016.58 1016.44 1016.21 1015.86 1015.39 1014.80 1014.12 1013.40 1012.71 1012.12 1011.69 1011.44 1011.37 1011.45 1011.64 1011.85 1012.04 1012.15 1012.16 1012.09 1011.95 1011.79 1011.66 1011.61 1011.67 1011.84 1012.11 1012.46 1012.88 1013.32 1013.77 1014.23 1014.67 1015.12 1015.58 1016.06 1016.57 1017.09 1017.62 1018.16 1018.69 1019.20 1019.69 1020.15 1020.59 1021.00 1021.39
1016.70 1016.69 1016.63 1016.51 1016.26 1015.88 1015.36 1014.71 1013.99 1013.27 1012.63 1012.15 1011.87 1011.80 1011.93 1012.21 1012.56 1012.89 1013.14 1013.25 1013.21 1013.03 1012.77 1012.49 1012.24 1012.09 1012.05 1012.14 1012.35 1012.65 1013.00 1013.37 1013.75 1014.13 1014.52 1014.92 1015.35 1015.82 1016.34 1016.89 1017.46 1018.03 1018.58 1019.10 1019.58 1020.03 1020.45 1020.85 1021.24
1016.59 1016.62 1016.61 1016.50 1016.25 1015.84 1015.28 1014.60 1013.87 1013.19 1012.64 1012.29 1012.20 1012.35 1012.71 1013.20 1013.72 1014.17 1014.47 1014.58 1014.48 1014.21 1013.84 1013.43 1013.07 1012.81 1012.69 1012.70 1012.84 1013.07 1013.34 1013.63 1013.93 1014.22 1014.53 1014.86 1015.25 1015.70 1016.21 1016.77 1017.35 1017.93 1018.49 1018.99 1019.44 1019.85 1020.22 1020.58 1020.94
1016.42 1016.51 1016.54 1016.45 1016.20 1015.77 1015.19 1014.49 1013.78 1013.15 1012.71 1012.53 1012.64 1013.01 1013.60 1014.30 1014.99 1015.56 1015.92 1016.02 1015.88 1015.53 1015.05 1014.54 1014.08 1013.73 1013.53 1013.48 1013.55 1013.70 1013.90 1014.10 1014.30 1014.50 1014.71 1014.97 1015.29 1015.70 1016.18 1016.72 1017.29 1017.86 1018.38 1018.84 1019.24 1019.58 1019.88 1020.18 1020.49
1016.26 1016.41 1016.48 1016.42 1016.17 1015.73 1015.13 1014.44 1013.76 1013.20 1012.88 1012.85 1013.15 1013.74 1014.54 1015.42 1016.26 1016.93 1017.34 1017.45 1017.27 1016.87 1016.32 1015.74 1015.21 1014.80 1014.54 1014.43 1014.44 1014.52 1014.63 1014.74 1014.84 1014.93 1015.05 1015.21 1015.45 1015.79 1016.22 1016.71 1017.24 1017.76 1018.23 1018.63 1018.95 1019.21 1019.43 1019.64 1019.89
1016.18 1016.38 1016.50 1016.46 1016.22 1015.78 1015.18 1014.49 1013.85 1013.36 1013.14 1013.26 1013.72 1014.47 1015.44 1016.46 1017.42 1018.16 1018.62 1018.74 1018.55 1018.12 1017.54 1016.92 1016.35 1015.91 1015.62 1015.48 1015.44 1015.46 1015.49 1015.51 1015.50 1015.49 1015.49 1015.54 1015.69 1015.93 1016.28 1016.70 1017.16 1017.61 1018.01 1018.33 1018.57 1018.74 1018.87 1019.01 1019.18
1016.21 1016.48 1016.64 1016.63 1016.40 1015.96 1015.36 1014.69 1014.08 1013.66 1013.52 1013.74 1014.31 1015.18 1016.25 1017.37 1018.39 1019.18 1019.66 1019.80 1019.63 1019.20 1018.63 1018.02 1017.46 1017.02 1016.73 1016.56 1016.49 1016.45 1016.42 1016.35 1016.24 1016.11 1016.00 1015.94 1015.97 1016.10 1016.35 1016.67 1017.04 1017.40 1017.72 1017.96 1018.13 1018.22 1018.27 1018.33 1018.43
1016.38 1016.70 1016.89 1016.90 1016.69 1016.26 1015.67 1015.03 1014.46 1014.09 1014.01 1014.29 1014.92 1015.84 1016.95 1018.09 1019.13 1019.94 1020.44 1020.60 1020.45 1020.07 1019.55 1018.99 1018.48 1018.08 1017.80 1017.64 1017.54 1017.47 1017.37 1017.22 1017.01 1016.78 1016.55 1016.37 1016.28 1016.29 1016.41 1016.63 1016.89 1017.16 1017.39 1017.56 1017.66 1017.69 1017.68 1017.68 1017.71
1016.64 1017.00 1017.22 1017.25 1017.05 1016.64 1016.08 1015.47 1014.94 1014.62 1014.58 1014.89 1015.53 1016.45 1017.53 1018.65 1019.66 1020.45 1020.94 1021.13 1021.03 1020.71 1020.28 1019.80 1019.38 1019.05 1018.82 1018.67 1018.57 1018.47 1018.31 1018.09 1017.80 1017.47 1017.13 1016.84 1016.62 1016.51 1016.51 1016.60 1016.75 1016.92 1017.07 1017.17 1017.21 1017.20 1017.16 1017.11 1017.09
1016.94 1017.32 1017.55 1017.58 1017.39 1017.01 1016.50 1015.95 1015.47 1015.20 1015.20 1015.51 1016.13 1017.00 1018.01 1019.05 1019.99 1020.73 1021.21 1021.42 1021.38 1021.15 1020.82 1020.47 1020.15 1019.91 1019.74 1019.64 1019.54 1019.42 1019.23 1018.95 1018.59 1018.17 1017.74 1017.34 1017.01 1016.78 1016.65 1016.63 1016.66 1016.73 1016.81 1016.85 1016.85 1016.81 1016.74 1016.67 1016.61
1017.22 1017.58 1017.79 1017.82 1017.64 1017.30 1016.84 1016.37 1015.97 1015.76 1015.79 1016.10 1016.68 1017.47 1018.39 1019.32 1020.16 1020.83 1021.29 1021.51 1021.54 1021.41 1021.21 1020.98 1020.79 1020.65 1020.56 1020.50 1020.42 1020.29 1020.07 1019.76 1019.35 1018.87 1018.37 1017.89 1017.47 1017.13 1016.89 1016.75 1016.67 1016.65 1016.64 1016.63 1016.60 1016.54 1016.46 1016.36 1016.28
1017.45 1017.74 1017.91 1017.90 1017.73 1017.43 1017.04 1016.66 1016.36 1016.23 1016.32 1016.64 1017.17 1017.88 1018.68 1019.49 1020.22 1020.81 1021.23 1021.47 1021.56 1021.53 1021.45 1021.36 1021.29 1021.25 1021.24 1021.22 1021.17 1021.04 1020.81 1020.47 1020.04 1019.53 1018.99 1018.46 1017.97 1017.55 1017.22 1016.97 1016.80 1016.68 1016.59 1016.52 1016.45 1016.37 1016.28 1016.17 1016.06
1017.60 1017.80 1017.88 1017.83 1017.65 1017.38 1017.08 1016.80 1016.62 1016.59 1016.74 1017.08 1017.59 1018.22 1018.91 1019.60 1020.21 1020.72 1021.09 1021.34 1021.47 1021.54 1021.57 1021.59 1021.63 1021.69 1021.74 1021.76 1021.72 1021.60 1021.38 1021.04 1020.61 1020.10 1019.56 1019.01 1018.48 1018.01 1017.61 1017.27 1017.01 1016.80 1016.63 1016.49 1016.38 1016.26 1016.15 1016.03 1015.90
1017.74 1017.81 1017.77 1017.65 1017.44 1017.21 1016.98 1016.81 1016.75 1016.83 1017.06 1017.44 1017.93 1018.50 1019.09 1019.66 1020.17 1020.58 1020.91 1021.14 1021.31 1021.45 1021.56 1021.68 1021.80 1021.92 1022.01 1022.07 1022.05 1021.93 1021.72 1021.40 1020.99 1020.51 1019.99 1019.46 1018.93 1018.44 1017.99 1017.59 1017.25 1016.95 1016.69 1016.48 1016.30 1016.14 1015.99 1015.85 1015.69
Thickness
5756 5759 5760 5751 5731 5718 5721 5731 5738 5735 5738 5740 5741 5737 5731 5730 5726 5719 5739 5750 5750 5747 5740 5734 5730 5726 5722 5719 5715 5713 5711 5709 5708 5707 5707 5706 5705 5705 5705 5705 5705 5705 5704 5704 5705 5705 5705 5705 5706
5757 5761 5755 5741 5721 5711 5720 5734 5734 5735 5741 5745 5745 5742 5739 5743 5748 5745 5744 5748 5749 5746 5740 5735 5731 5727 5724 5720 5717 5715 5712 5710 5709 5707 5706 5704 5703 5703 5702 5702 5702 5702 5702 5702 5702 5702 5702 5702 5703
5756 5758 5744 5732 5723 5717 5722 5737 5739 5745 5750 5745 5743 5748 5744 5743 5751 5749 5747 5749 5748 5745 5741 5736 5732 5728 5725 5722 5718 5716 5713 5711 5710 5708 5706 5704 5702 5701 5700 5699 5699 5699 5699 5699 5699 5699 5699 5699 5700
5753 5748 5741 5726 5722 5734 5737 5740 5740 5741 5747 5745 5742 5741 5752 5756 5754 5750 5750 5750 5747 5744 5741 5736 5731 5728 5725 5722 5719 5716 5714 5712 5710 5708 5707 5705 5702 5700 5699 5698 5697 5696 5696 5696 5696 5696 5696 5696 5696
5750 5739 5726 5719 5729 5740 5745 5744 5742 5737 5741 5746 5742 5737 5746 5754 5756 5753 5751 5749 5746 5743 5741 5736 5731 5727 5724 5721 5719 5716 5714 5712 5710 5708 5706 5704 5702 5700 5698 5697 5695 5694 5694 5693 5693 5693 5693 5693 5693
5738 5734 5714 5714 5728 5738 5743 5743 5740 5738 5742 5745 5741 5736 5746 5753 5753 5752 5751 5748 5747 5743 5740 5735 5730 5726 5723 5720 5717 5715 5713 5712 5710 5708 5706 5704 5702 5700 5698 5696 5694 5693 5692 5691 5691 5690 5690 5690 5690
5729 5722 5714 5718 5722 5731 5737 5740 5736 5732 5733 5740 5744 5734 5745 5746 5749 5751 5749 5747 5745 5743 5738 5735 5730 5726 5723 5720 5717 5715 5712 5711 5709 5708 5706 5703 5701 5699 5697 5695 5693 5692 5690 5689 5688 5687 5686 5686 5686
5732 5721 5717 5719 5721 5724 5737 5738 5737 5732 5731 5745 5742 5731 5736 5739 5745 5745 5744 5742 5741 5740 5737 5734 5731 5727 5724 5722 5719 5716 5713 5710 5708 5706 5704 5701 5699 5697 5695 5693 5692 5690 5688 5687 5685 5684 5683 5682 5682
5729 5710 5706 5717 5721 5726 5735 5732 5736 5742 5735 5736 5741 5739 5745 5744 5742 5738 5735 5733 5733 5734 5734 5733 5731 5728 5726 5723 5720 5716 5713 5710 5707 5704 5701 5698 5695 5693 5692 5690 5689 5687 5686 5684 5682 5680 5679 5678 5677
5716 5700 5713 5727 5728 5725 5726 5723 5725 5728 5725 5727 5733 5742 5748 5743 5738 5733 5730 5728 5728 5728 5730 5730 5728 5727 5725 5722 5719 5715 5712 5709 5705 5702 5698 5695 5692 5690 5688 5686 5685 5683 5682 5680 5677 5676 5674 5673 5673
5715 5707 5717 5723 5726 5722 5716 5715 5721 5718 5715 5721 5726 5735 5740 5740 5736 5732 5730 5730 5731 5731 5730 5728 5726 5724 5722 5720 5717 5714 5710 5707 5703 5700 5697 5693 5690 5687 5685 5682 5680 5678 5676 5674 5672 5670 5668 5668 5668
5711 5713 5716 5717 5719 5713 5708 5710 5711 5716 5720 5729 5732 5735 5737 5734 5732 5731 5730 5731 5732 5732 5732 5729 5726 5723 5720 5717 5715 5712 5708 5705 5701 5698 5695 5691 5687 5684 5681 5678 5675 5673 5671 5669 5666 5664 5663 5663 5662
5705 5705 5711 5714 5712 5708 5704 5700 5701 5714 5724 5731 5733 5734 5732 5731 5730 5730 5732 5733 5732 5730 5730 5730 5727 5722 5719 5715 5713 5709 5706 5703 5699 5695 5692 5689 5684 5680 5677 5674 5670 5668 5666 5664 5661 5658 5657 5656 5655
5702 5700 5702 5705 5704 5704 5697 5698 5698 5712 5724 5727 5729 5728 5728 5726 5726 5726 5727 5728 5728 5728 5728 5727 5725 5721 5716 5712 5709 5706 5703 5700 5696 5693 5689 5685 5681 5676 5672 5668 5666 5663 5661 5658 5655 5652 5650 5648 5648
5692 5683 5690 5700 5702 5702 5695 5687 5697 5711 5719 5719 5720 5721 5722 5720 5719 5716 5718 5719 5721 5722 5723 5722 5720 5717 5712 5708 5704 5701 5698 5695 5692 5689 5685 5681 5676 5672 5667 5663 5661 5658 5656 5652 5648 5645 5642 5640 5640
5681 5672 5670 5694 5700 5690 5680 5669 5698 5709 5706 5706 5711 5713 5711 5709 5706 5705 5705 5706 5707 5709 5710 5712 5712 5710 5706 5702 5698 5694 5692 5689 5686 5683 5679 5675 5670 5666 5662 5658 5655 5652 5650 5646 5642 5638 5635 5633 5632
5664 5658 5662 5679 5691 5681 5669 5665 5687 5699 5696 5698 5705 5706 5703 5697 5693 5690 5689 5688 5689 5690 5692 5695 5698 5697 5696 5694 5690 5686 5683 5680 5677 5674 5671 5668 5663 5658 5655 5651 5648 5645 5642 5639 5635 5632 5629 5625 5624
5655 5657 5658 5659 5673 5669 5657 5659 5674 5687 5692 5695 5698 5696 5689 5681 5675 5673 5671 5669 5670 5673 5676 5679 5682 5684 5684 5683 5680 5676 5673 5670 5667 5665 5662 5659 5655 5650 5646 5643 5640 5637 5633 5630 5627 5624 5622 5619 5616
5655 5649 5644 5652 5666 5661 5656 5658 5667 5676 5680 5686 5688 5683 5673 5664 5660 5657 5653 5651 5653 5656 5660 5663 5666 5668 5670 5668 5666 5663 5660 5658 5656 5654 5651 5649 5646 5641 5636 5633 5630 5628 5625 5622 5619 5617 5614 5610 5608
5643 5634 5634 5644 5657 5651 5645 5647 5658 5667 5672 5676 5674 5667 5657 5649 5644 5640 5636 5634 5635 5637 5641 5644 5647 5650 5653 5654 5654 5651 5648 5646 5645 5642 5640 5637 5634 5631 5627 5623 5620 5617 5614 5611 5610 5610 5606 5604 5603
5633 5628 5630 5631 5636 5640 5632 5633 5645 5662 5664 5659 5653 5645 5638 5631 5623 5618 5616 5614 5616 5618 5621 5624 5626 5630 5633 5636 5638 5637 5634 5631 5629 5627 5626 5623 5621 5618 5616 5613 5610 5607 5605 5602 5601 5602 5602 5599 5597
5620 5632 5628 5622 5611 5610 5620 5607 5634 5646 5643 5631 5622 5618 5612 5608 5604 5599 5597 5596 5597 5598 5601 5604 5606 5608 5611 5614 5615 5615 5614 5612 5612 5612 5612 5610 5608 5605 5603 5601 5599 5596 5594 5592 5591 5591 5592 5593 5590
5621 5620 5616 5611 5603 5596 5604 5597 5622 5640 5623 5606 5600 5594 5588 5584 5581 5578 5577 5576 5577 5579 5582 5584 5586 5587 5588 5590 5591 5592 5592 5593 5594 5594 5595 5595 5594 5592 5589 5588 5587 5585 5584 5582 5580 5579 5580 5581 5582
5610 5606 5603 5599 5591 5579 5603 5600 5612 5620 5617 5597 5586 5578 5570 5565 5560 5557 5556 5555 5556 5560 5562 5564 5565 5565 5565 5566 5567 5568 5568 5571 5572 5573 5574 5576 5577 5576 5575 5574 5572 5572 5571 5571 5569 5569 5568 5568 5570
5595 5586 5573 5574 5568 5574 5598 5592 5601 5606 5605 5593 5577 5563 5553 5547 5541 5538 5536 5535 5535 5537 5540 5543 5543 5542 5541 5542 5543 5543 5545 5547 5549 5550 5552 5554 5556 5558 5559 5559 5558 5557 5557 5557 5557 5557 5557 5557 5557
5584 5579 5558 5547 5553 5562 5573 5573 5591 5587 5579 5571 5560 5547 5538 5530 5525 5522 5519 5517 5516 5517 5517 5518 5519 5518 5518 5517 5518 5519 5520 5522 5523 5525 5527 5530 5532 5535 5539 5541 5541 5541 5541 5542 5542 5542 5543 5544 5544
5568 5564 5562 5540 5534 5531 5553 5577 5580 5565 5556 5547 5538 5528 5519 5514 5510 5507 5503 5500 5498 5496 5495 5494 5492 5491 5492 5492 5493 5495 5495 5497 5499 5500 5502 5504 5507 5511 5514 5518 5521 5522 5523 5523 5524 5525 5526 5528 5529
5553 5549 5530 5523 5515 5517 5541 5554 5561 5557 5538 5529 5520 5510 5503 5499 5494 5490 5485 5482 5478 5476 5474 5472 5469 5466 5466 5466 5467 5469 5469 5471 5474 5476 5478 5479 5482 5486 5489 5492 5496 5500 5502 5503 5504 5506 5508 5510 5512
5537 5531 5527 5518 5512 5505 5507 5530 5546 5539 5527 5512 5502 5494 5488 5482 5476 5471 5467 5463 5460 5456 5453 5450 5447 5444 5442 5442 5443 5444 5445 5447 5449 5451 5453 5455 5458 5462 5465 5467 5471 5475 5479 5481 5483 5485 5487 5491 5494
5530 5527 5520 5505 5497 5500 5496 5507 5518 5511 5502 5493 5484 5478 5470 5464 5458 5453 5448 5444 5440 5436 5433 5430 5427 5424 5422 5421 5420 5420 5422 5423 5424 5426 5427 5430 5434 5438 5441 5444 5447 5451 5454 5458 5461 5463 5466 5469 5474